Regional Weather Roundup
Issued by NWS

Home | Current Version | Previous Version | Graphics & Text | Print | Product List | Glossary On
Versions: 1 2 3 4 5 6 7 8 9 10 11 12 13 14 15 16 17 18 19 20 21 22 23 24 25 26 27 28 29 30 31 32 33 34 35 36 37 38 39 40 41 42 43 44 45 46 47 48 49 50
000
ASUS43 KFSD 030510
RWRSD

WEATHER ROUNDUP FOR SOUTH DAKOTA
NATIONAL WEATHER SERVICE SIOUX FALLS SD
1100 PM CST FRI DEC 02 2016

NOTE: "FAIR" INDICATES FEW OR NO CLOUDS BELOW 12,000 FEET WITH NO
SIGNIFICANT WEATHER AND/OR OBSTRUCTIONS TO VISIBILITY.


SDZ001>005-009-010-012>017-030600-
NORTHWEST AND NORTH CENTRAL SOUTH DAKOTA

CITY           SKY/WX    TMP DP  RH WIND       PRES   REMARKS
BUFFALO          N/A     25  22  88 S8        30.02F WCI  16
FAITH            N/A     20  20 100 S14       30.15F WCI   7
MOBRIDGE       CLOUDY    31  27  85 S13       30.18F WCI  21
$$

SDZ012>016-024>037-041>051-057-063-072>074-030600-
SOUTHWEST AND SOUTH CENTRAL SOUTH DAKOTA

CITY           SKY/WX    TMP DP  RH WIND       PRES   REMARKS
RAPID CTY ARPT CLEAR     23  18  81 S5        30.14F WCI  17
PIERRE         CLEAR     19  17  92 CALM      30.22F
CUSTER         CLEAR     15  11  83 CALM      30.08F
ELLSWORTH AFB  CLEAR     27  21  80 S7        30.12F WCI  19
PHILIP         CLEAR     13  12  96 W5        30.20F WCI   5
PINE RIDGE     PTCLDY    23  20  88 CALM      30.16F
SPEARFISH      FAIR      21  14  73 E5        30.08F WCI  15
WINNER         FAIR      26  22  84 S7        30.23F WCI  18
$$

SDZ004>011-016>023-039-040-030600-
NORTHEAST SOUTH DAKOTA

CITY           SKY/WX    TMP DP  RH WIND       PRES   REMARKS
ABERDEEN       CLOUDY    24  19  81 SE5       30.28S WCI  18
WATERTOWN      CLOUDY    24  18  77 SW7       30.26F WCI  16
BROOKINGS      CLOUDY    25  20  81 N3        30.28S
SISSETON         N/A     27  19  72 CALM      30.29S
$$

SDZ017-020-022-023-036>040-048>070-030600-
SOUTHEAST SOUTH DAKOTA

CITY           SKY/WX    TMP DP  RH WIND       PRES   REMARKS
SIOUX FALLS    CLOUDY    30  24  78 CALM      30.31R
HURON          CLOUDY    29  26  89 S6        30.30S WCI  23
CHAMBERLAIN    CLOUDY    25  25  99 E3        30.26F FOG
MITCHELL       CLOUDY    30  28  92 CALM      30.31S
YANKTON        CLEAR     27  25  93 NE6       30.30S WCI  20
$$

ABBREVIATIONS USED IN REMARKS
   TC - TEMPERATURE IN CELSIUS
  WCI - WIND CHILL INDEX
   HX - HEAT INDEX
  VSB - VISIBILITY





USA.gov is the U.S. government's official web portal to all federal, state and local government web resources and services.